Location: Colonia Mina de C?rbuni
(46.1667°N, 22.7167°E)
Time: 07:05:11
(UTC+00:00)

Tiros 1 - Pass Details

Date: 22 April 2024
Orbit: 624 x 657 km, 48.4° (Epoch: 26 May)

Event Time Altitude Azimuth Distance (km) Brightness Sun altitude
Exits shadow 01:02:42 33° 292° (WNW) 1,048 8.0 -22.0°
Maximum altitude 01:04:38 66° 4° (N) 685 7.3 -21.7°
Drops below altitude 10° 01:09:12 10° 87° (E) 1,996 10.3 -21.2°
Sets 01:11:31 0° 90° (E) 2,900 11.1 -20.9°
